Weather History for Galesburg, IL

Change the Weather History Date:

Tuesday, August 13, 2013

  Actual Average Record
Temperature  
Mean Temperature 62 °F -  
Max Temperature 74 °F 82 °F 92 °F (1957)
Min Temperature 52 °F 62 °F 46 °F (1964)
Degree Days  
Heating Degree Days 2    
Growing Degree Days 12 (Base 50)    
Moisture  
Dew Point 53 °F    
Average Humidity 73    
Maximum Humidity 96    
Minimum Humidity 40    
Precipitation  
Precipitation 0.00 in - - ()
Sea Level Pressure  
Sea Level Pressure 30.09 in    
Wind  
Wind Speed 4 mph (NNE)    
Max Wind Speed 15 mph    
Max Gust Speed 18 mph    
Visibility 10 miles    
Events      
Averages and records for this station are not official NWS values.
T = Trace of Precipitation, MM = Missing Value Source: NWS Daily Summary

Daily Weather History Graph

Daily Weather History Graph

Search for Another Location

Airport:

Trip Planner

Search our weather history database for the weather conditions in past years. The results will help you decide how hot, cold, wet, or windy it might be!

Date:

Astronomy

Aug. 13, 2013 Rise Set
Actual Time 6:09 AM CDT 8:02 PM CDT
Civil Twilight 5:40 AM CDT 8:32 PM CDT
Nautical Twilight 5:04 AM CDT 9:08 PM CDT
Astronomical Twilight 4:25 AM CDT 9:46 PM CDT
Moon 1:08 PM CDT (8/13) 11:33 PM CDT (8/13)
Length of Visible Light 14h 51m
Length of Day
13h 52m
Waxing Crescent, 42% of the Moon is Illuminated
Aug 13
Waxing Crescent
Aug 14
First Quarter
Aug 20
Full
Aug 28
Last Quarter
Sep 5
New

Hourly Weather History & Observations

Time (CDT) Temp. Dew Point Humidity Pressure Visibility Wind Dir Wind Speed Gust Speed Precip Events Conditions
12:15 AM 60.8 °F 57.4 °F 88% 30.00 in 10.0 mi Calm Calm - N/A   Clear
12:35 AM 59.2 °F 55.9 °F 89% 30.00 in 10.0 mi Calm Calm - N/A   Clear
12:55 AM 58.6 °F 57.0 °F 94% 29.99 in 10.0 mi Calm Calm - N/A   Clear
1:15 AM 59.5 °F 57.2 °F 92% 29.99 in 10.0 mi Calm Calm - N/A   Clear
1:35 AM 57.7 °F 55.9 °F 94% 29.99 in 10.0 mi Calm Calm - N/A   Clear
1:55 AM 57.7 °F 55.9 °F 94% 29.99 in 10.0 mi Calm Calm - N/A   Clear
2:15 AM 58.1 °F 56.3 °F 94% 29.99 in 10.0 mi Calm Calm - N/A   Clear
2:35 AM 57.2 °F 55.2 °F 93% 29.99 in 10.0 mi Calm Calm - N/A   Clear
2:55 AM 57.6 °F 56.1 °F 95% 29.99 in 10.0 mi Calm Calm - N/A   Clear
3:15 AM 56.5 °F 54.9 °F 94% 29.98 in 10.0 mi Calm Calm - N/A   Clear
3:35 AM 55.2 °F 53.6 °F 94% 29.99 in 10.0 mi Calm Calm - N/A   Clear
3:55 AM 55.8 °F 54.5 °F 96% 29.99 in 10.0 mi Calm Calm - N/A   Clear
4:15 AM 55.8 °F 54.1 °F 94% 29.99 in 10.0 mi WNW 3.5 mph - N/A   Clear
4:35 AM 55.6 °F 54.1 °F 95% 30.02 in 10.0 mi West 4.6 mph - N/A   Clear
4:55 AM 55.8 °F 54.1 °F 94% 30.02 in 10.0 mi WNW 4.6 mph - N/A   Clear
5:15 AM 54.7 °F 53.2 °F 95% 30.01 in 10.0 mi Calm Calm - N/A   Clear
5:35 AM 54.5 °F 52.9 °F 94% 30.01 in 10.0 mi Calm Calm - N/A   Clear
5:55 AM 54.5 °F 53.2 °F 96% 30.02 in 10.0 mi Calm Calm - N/A   Clear
6:15 AM 53.8 °F 52.5 °F 95% 30.03 in 10.0 mi Calm Calm - N/A   Clear
6:35 AM 54.1 °F 52.9 °F 95% 30.03 in 10.0 mi NNW 4.6 mph - N/A   Clear
6:55 AM 55.8 °F 54.5 °F 96% 30.03 in 10.0 mi NNW 5.8 mph - N/A   Clear
7:15 AM 57.9 °F 56.1 °F 94% 30.04 in 10.0 mi North 8.1 mph - N/A   Clear
7:35 AM 59.9 °F 57.7 °F 93% 30.05 in 10.0 mi NNE 11.5 mph - N/A   Scattered Clouds
7:55 AM 60.3 °F 57.0 °F 89% 30.06 in 10.0 mi NE 12.7 mph - N/A   Clear
8:15 AM 61.0 °F 57.0 °F 87% 30.07 in 10.0 mi NE 12.7 mph - N/A   Clear
8:35 AM 62.2 °F 56.5 °F 81% 30.08 in 10.0 mi NE 15.0 mph - N/A   Clear
8:55 AM 63.3 °F 55.8 °F 76% 30.08 in 10.0 mi NE 9.2 mph - N/A   Clear
9:15 AM 64.8 °F 55.8 °F 73% 30.09 in 10.0 mi NE 11.5 mph - N/A   Clear
9:35 AM 65.5 °F 55.4 °F 70% 30.10 in 10.0 mi NE 11.5 mph - N/A   Clear
9:55 AM 67.1 °F 55.4 °F 66% 30.11 in 10.0 mi NNE 10.4 mph - N/A   Clear
10:15 AM 68.0 °F 55.2 °F 64% 30.12 in 10.0 mi NNE 10.4 mph - N/A   Clear
10:35 AM 68.9 °F 55.4 °F 62% 30.12 in 10.0 mi NE 10.4 mph - N/A   Clear
10:55 AM 69.4 °F 55.4 °F 61% 30.12 in 10.0 mi North 12.7 mph - N/A   Clear
11:15 AM 70.2 °F 55.6 °F 60% 30.12 in 10.0 mi NNE 9.2 mph - N/A   Clear
11:35 AM 70.7 °F 55.9 °F 59% 30.13 in 10.0 mi NNE 10.4 mph - N/A   Clear
11:55 AM 71.1 °F 54.7 °F 56% 30.13 in 10.0 mi NE 10.4 mph - N/A   Clear
12:15 PM 70.9 °F 54.7 °F 56% 30.14 in 10.0 mi NNE 9.2 mph - N/A   Clear
12:35 PM 70.9 °F 54.7 °F 56% 30.14 in 10.0 mi North 11.5 mph 18.4 mph N/A   Clear
12:55 PM 72.1 °F 53.8 °F 52% 30.14 in 10.0 mi North 9.2 mph - N/A   Clear
1:15 PM 71.6 °F 53.6 °F 53% 30.14 in 10.0 mi NNE 6.9 mph - N/A   Scattered Clouds
1:35 PM 71.4 °F 52.3 °F 51% 30.14 in 10.0 mi NNE 9.2 mph - N/A   Clear
1:55 PM 72.9 °F 52.0 °F 48% 30.14 in 10.0 mi North 6.9 mph - N/A   Clear
2:15 PM 72.7 °F 50.9 °F 46% 30.14 in 10.0 mi NNE 9.2 mph - N/A   Clear
2:35 PM 72.7 °F 49.1 °F 43% 30.13 in 10.0 mi North 8.1 mph 17.3 mph N/A   Clear
2:55 PM 72.7 °F 50.0 °F 45% 30.13 in 10.0 mi NE 5.8 mph - N/A   Clear
3:15 PM 73.8 °F 48.2 °F 40% 30.12 in 10.0 mi North 12.7 mph - N/A   Scattered Clouds
3:35 PM 73.9 °F 49.1 °F 41% 30.12 in 10.0 mi North 13.8 mph - N/A   Clear
3:55 PM 73.8 °F 48.6 °F 41% 30.12 in 10.0 mi North 10.4 mph 17.3 mph N/A   Clear
4:15 PM 72.9 °F 48.6 °F 42% 30.12 in 10.0 mi NNE 11.5 mph - N/A   Clear
4:35 PM 73.0 °F 48.6 °F 42% 30.12 in 10.0 mi NNE 10.4 mph - N/A   Scattered Clouds
4:55 PM 72.3 °F 47.3 °F 41% 30.12 in 10.0 mi North 9.2 mph - N/A   Scattered Clouds
5:15 PM 72.7 °F 50.2 °F 45% 30.11 in 10.0 mi NNE 11.5 mph 16.1 mph N/A   Scattered Clouds
5:35 PM 71.2 °F 48.0 °F 44% 30.11 in 10.0 mi North 9.2 mph - N/A   Scattered Clouds
5:55 PM 70.9 °F 47.8 °F 44% 30.11 in 10.0 mi NNE 11.5 mph - N/A   Scattered Clouds
6:55 PM 67.8 °F 48.4 °F 50% 30.11 in 10.0 mi NNE 10.4 mph - N/A   Clear
7:15 PM 66.0 °F 49.6 °F 55% 30.11 in 10.0 mi NNE 6.9 mph - N/A   Clear
7:35 PM 63.0 °F 50.2 °F 63% 30.11 in 10.0 mi NNE 5.8 mph - N/A   Clear
7:55 PM 59.2 °F 49.8 °F 71% 30.12 in 10.0 mi NNE 5.8 mph - N/A   Clear
8:15 PM 56.8 °F 49.1 °F 75% 30.12 in 10.0 mi NNE 5.8 mph - N/A   Clear
8:35 PM 55.4 °F 48.6 °F 78% 30.12 in 10.0 mi NNE 5.8 mph - N/A   Clear
8:55 PM 55.9 °F 50.0 °F 80% 30.13 in 10.0 mi NE 4.6 mph - N/A   Clear
9:15 PM 54.9 °F 49.6 °F 83% 30.14 in 10.0 mi NE 4.6 mph - N/A   Clear
9:35 PM 54.5 °F 48.9 °F 81% 30.14 in 10.0 mi NE 4.6 mph - N/A   Clear
9:55 PM 54.0 °F 48.4 °F 81% 30.14 in 10.0 mi NE 4.6 mph - N/A   Clear
10:15 PM 52.7 °F 47.3 °F 82% 30.15 in 10.0 mi NE 4.6 mph - N/A   Clear
10:35 PM 55.0 °F 48.4 °F 78% 30.16 in 10.0 mi Calm Calm - N/A   Clear
10:55 PM 54.5 °F 48.2 °F 79% 30.16 in 10.0 mi Calm Calm - N/A   Clear
11:15 PM 53.2 °F 48.6 °F 84% 30.16 in 10.0 mi Calm Calm - N/A   Clear
11:35 PM 53.6 °F 49.1 °F 85% 30.16 in 10.0 mi Calm Calm - N/A   Clear
11:55 PM 52.2 °F 50.0 °F 92% 30.17 in 10.0 mi Calm Calm - N/A   Clear